Pau, France

11:21 AM CET on January 16, 2018 (GMT +0100)
Pau / Pyrenees

Weather History for LFBP - April, 2013

Change the Weather History Date:

Monday, April 8, 2013

  Actual Average Record
Temperature  
Mean Temperature 50 °F -  
Max Temperature 55 °F 63 °F 84 °F (2011)
Min Temperature 44 °F 46 °F 35 °F (2003)
Degree Days  
Heating Degree Days 16    
Moisture  
Dew Point 43 °F    
Average Humidity 80    
Maximum Humidity 100    
Minimum Humidity 67    
Precipitation  
Precipitation 0.00 in - - ()
Sea Level Pressure  
Sea Level Pressure 29.80 in    
Wind  
Wind Speed 6 mph ()    
Max Wind Speed 16 mph    
Max Gust Speed -    
Visibility 5.8 miles    
Events Rain    
Averages and records for this station are not official NWS values.
T = Trace of Precipitation, MM = Missing Value Source: Averaged Metar Reports

Daily Weather History Graph

Daily Weather History Graph

Search for Another Location

Airport or City:

Trip Planner

Search our weather history database for the weather conditions in past years. The results will help you decide how hot, cold, wet, or windy it might be!

Date:

Astronomy

Apr. 08, 2013 Rise Set
Actual Time 7:31 AM CEST 8:36 PM CEST
Civil Twilight 7:01 AM CEST 9:05 PM CEST
Nautical Twilight 6:27 AM CEST 9:40 PM CEST
Astronomical Twilight 5:50 AM CEST 10:17 PM CEST
Moon 6:16 AM CEST (4/8) 6:53 PM CEST (4/8)
Length of Visible Light 14h 03m
Length of Day
13h 05m
Waning Crescent, 4% of the Moon is Illuminated
Apr 8
Waning Crescent
Apr 10
New
Apr 18
First Quarter
Apr 25
Full
May 2
Last Quarter

Hourly Weather History & Observations

Time (CEST) Temp. Windchill Dew Point Humidity Pressure Visibility Wind Dir Wind Speed Gust Speed Precip Events Conditions
12:00 AM 46.4 °F 44.3 °F 39.2 °F 76% 29.83 in 4.3 mi SSE 4.6 mph - N/A   Overcast
12:30 AM 48.2 °F - 39.2 °F 71% 29.83 in 5.0 mi SSE 3.5 mph - N/A   Overcast
1:00 AM 46.4 °F - 42.8 °F 87% 29.83 in 4.3 mi Variable 1.2 mph - N/A Rain Light Rain
1:30 AM 46.4 °F 45.2 °F 41.0 °F 81% 29.83 in 4.3 mi SSE 3.5 mph - N/A   Overcast
2:00 AM 48.2 °F - 41.0 °F 76% 29.83 in 4.3 mi South 4.6 mph - N/A Rain Light Rain
2:30 AM 46.4 °F - 41.0 °F 81% 29.83 in 3.7 mi Variable 2.3 mph - N/A Rain Light Rain
3:00 AM 46.4 °F - 42.8 °F 87% 29.83 in - Calm Calm - N/A Rain Light Rain
3:30 AM 46.4 °F 45.2 °F 44.6 °F 93% 29.80 in 6.2 mi Variable 3.5 mph - N/A   Overcast
4:00 AM 46.4 °F 43.5 °F 42.8 °F 87% 29.80 in 6.2 mi NNW 5.8 mph - N/A   Overcast
4:30 AM 46.4 °F 40.7 °F 42.8 °F 87% 29.80 in 6.2 mi NW 12.7 mph - N/A Rain Light Rain
5:00 AM 44.6 °F 39.7 °F 44.6 °F 100% 29.80 in 5.6 mi NNW 9.2 mph - N/A Rain Light Rain
5:30 AM 44.6 °F 39.2 °F 42.8 °F 93% 29.83 in 5.6 mi NNW 10.4 mph - N/A Rain Light Rain
6:00 AM 44.6 °F 41.4 °F 42.8 °F 93% 29.83 in 5.6 mi NW 5.8 mph - N/A Rain Rain
6:30 AM 44.6 °F - 41.0 °F 87% 29.80 in 5.0 mi Variable 2.3 mph - N/A Rain Light Rain
7:00 AM 44.6 °F 43.1 °F 42.8 °F 93% 29.83 in 3.7 mi Variable 3.5 mph - N/A Rain Rain
7:30 AM 44.6 °F 40.7 °F 42.8 °F 93% 29.80 in 4.3 mi South 6.9 mph - N/A Rain Rain
8:00 AM 44.6 °F 39.7 °F 42.8 °F 93% 29.80 in 6.2 mi South 9.2 mph - N/A Rain Light Rain
8:30 AM 44.6 °F 39.7 °F 42.8 °F 93% 29.83 in 6.2 mi South 9.2 mph - N/A   Mostly Cloudy
9:00 AM 44.6 °F 40.2 °F 41.0 °F 87% 29.83 in 6.2 mi South 8.1 mph - N/A Rain Light Rain
9:30 AM 44.6 °F 41.4 °F 41.0 °F 87% 29.83 in 6.2 mi South 5.8 mph - N/A Rain Light Rain
10:00 AM 46.4 °F 44.3 °F 42.8 °F 87% 29.83 in 6.2 mi South 4.6 mph - N/A   Mostly Cloudy
10:35 AM 48.2 °F - 42.8 °F 82% 29.83 in 6.2 mi SW 5.8 mph - N/A   Mostly Cloudy
11:00 AM 48.2 °F - 42.8 °F 82% 29.80 in 6.2 mi West 4.6 mph - N/A   Mostly Cloudy
11:30 AM 51.8 °F - 42.8 °F 71% 29.80 in 6.2 mi WSW 4.6 mph - N/A   Mostly Cloudy
12:00 PM 51.8 °F - 42.8 °F 71% 29.83 in 6.2 mi West 9.2 mph - N/A   Mostly Cloudy
12:30 PM 53.6 °F - 42.8 °F 67% 29.83 in 6.2 mi WNW 13.8 mph - N/A   Mostly Cloudy
1:00 PM 53.6 °F - 42.8 °F 67% 29.80 in 6.2 mi WNW 11.5 mph - N/A   Mostly Cloudy
1:30 PM 53.6 °F - 42.8 °F 67% 29.80 in 6.2 mi WNW 11.5 mph - N/A   Mostly Cloudy
2:00 PM 51.8 °F - 44.6 °F 76% 29.80 in 6.2 mi NW 11.5 mph - N/A   Mostly Cloudy
2:30 PM 51.8 °F - 44.6 °F 76% 29.80 in 6.2 mi NW 10.4 mph - N/A   Mostly Cloudy
3:00 PM 53.6 °F - 44.6 °F 72% 29.80 in 6.2 mi NW 16.1 mph - N/A   Mostly Cloudy
3:30 PM 53.6 °F - 44.6 °F 72% 29.80 in 6.2 mi NW 13.8 mph - N/A   Mostly Cloudy
4:00 PM 55.4 °F - 44.6 °F 67% 29.80 in 6.2 mi NW 15.0 mph - N/A   Mostly Cloudy
4:30 PM 53.6 °F - 44.6 °F 72% 29.80 in 6.2 mi NW 15.0 mph - N/A   Mostly Cloudy
5:00 PM 53.6 °F - 42.8 °F 67% 29.80 in 6.2 mi NW 12.7 mph - N/A   Mostly Cloudy
5:30 PM 55.4 °F - 44.6 °F 67% 29.80 in 6.2 mi NW 11.5 mph - N/A   Mostly Cloudy
6:00 PM 55.4 °F - 44.6 °F 67% 29.80 in 6.2 mi WNW 11.5 mph - N/A   Mostly Cloudy
6:30 PM 53.6 °F - 44.6 °F 72% 29.80 in 6.2 mi WNW 10.4 mph - N/A   Scattered Clouds
7:00 PM 53.6 °F - 44.6 °F 72% 29.80 in 6.2 mi NW 11.5 mph - N/A   Scattered Clouds
7:34 PM 53.6 °F - 44.6 °F 72% 29.80 in 6.2 mi NW 8.1 mph - N/A   Scattered Clouds
8:00 PM 51.8 °F - 42.8 °F 71% 29.77 in 6.2 mi NW 5.8 mph - N/A   Scattered Clouds
8:30 PM 50.0 °F - 42.8 °F 76% 29.77 in 6.2 mi NNW 4.6 mph - N/A   Partly Cloudy
9:00 PM 50.0 °F - 42.8 °F 76% 29.77 in 6.2 mi South 2.3 mph - N/A   Partly Cloudy
9:30 PM 48.2 °F - 42.8 °F 82% 29.77 in 6.2 mi Variable 2.3 mph - N/A   Unknown
10:00 PM 48.2 °F - 42.8 °F 82% 29.77 in 6.2 mi ESE 4.6 mph - N/A   Overcast
10:30 PM 48.2 °F - 44.6 °F 87% 29.74 in 6.2 mi ESE 5.8 mph - N/A   Overcast
11:00 PM 50.0 °F - 42.8 °F 76% 29.74 in 6.2 mi Variable 2.3 mph - N/A   Overcast
11:30 PM 50.0 °F - 42.8 °F 76% 29.74 in 6.2 mi SE 5.8 mph - N/A   Overcast